User: anonymous   Login
Location: Unspecified
(0.0000°N, 0.0000°E)
Time: 19:43:27
(UTC+01:00)
Language:

YAOGAN 3 - Orbit

View from above orbital plane
View from above orbital plane
View from above satellite
View from above satellite

Ground track
Ground track

The orbit data is extracted from the following two-line orbital elements,

1 32289U 07055A   14327.17674874  .00001381  00000-0  18015-3 0  7980
2 32289 097.9488 317.9718 0001669 105.1535 254.9864 14.82146152380079
Epoch (UTC): 23 November 2014 04:14:31
Eccentricity: 0.0001669
inclination: 97.9488°
perigee height: 621 km
apogee height: 624 km
right ascension of ascending node: 317.9718°
argument of perigee: 105.1535°
revolutions per day: 14.82146152
mean anomaly at epoch: 254.9864°
orbit number at epoch: 38007

The dashed part of the orbit path shows where the satellite is in the earth's shadow,  

DLR